Wind_Speed
13 10 9 5 4 6 7 2 12 9 10 13 16 16 11 9 4 6 28 22 24 21 18 17 16 13 12 12 12 13 14 14 14 13 13 13 13 12 14 13 13 12 13 13 11 13 12 13 13
12 11 10 2 3 6 4 5 5 9 15 20 19 19 13 17 16 22 23 27 26 22 20 17 16 13 13 11 12 13 14 13 13 13 13 13 12 11 12 13 13 13 13 14 14 14 14 14 13
7 8 2 3 4 2 4 4 5 14 15 22 13 11 8 15 27 25 32 30 26 24 20 17 15 15 14 12 13 12 13 13 13 13 13 12 12 12 12 13 13 13 14 14 14 15 14 13 12
12 5 4 3 11 3 8 1 12 16 15 15 18 15 21 31 26 32 32 32 26 25 20 19 16 15 15 14 13 14 13 14 12 13 13 13 12 11 11 12 12 13 13 13 13 12 13 13 12
8 3 4 7 10 7 8 9 11 9 13 18 17 20 21 22 30 33 31 30 31 26 22 17 16 15 16 15 14 14 14 13 13 14 13 12 12 12 10 12 12 12 13 12 13 11 11 11 12
4 3 6 8 4 8 9 7 17 4 16 10 20 21 10 28 28 30 30 29 30 25 22 18 17 15 15 14 15 14 14 15 15 14 13 13 13 12 11 11 12 12 12 12 12 12 12 12 13
10 6 9 9 5 6 8 7 11 14 18 15 21 20 14 19 29 27 30 33 30 28 21 17 16 15 14 14 14 15 15 15 15 14 14 14 13 12 12 12 13 13 13 12 12 12 12 13 14
3 3 6 5 6 3 6 6 3 8 9 21 20 10 19 19 31 27 32 28 34 27 22 22 18 15 14 13 14 15 14 15 15 14 14 16 16 14 13 14 13 12 12 12 12 13 15 18 18
3 4 4 5 1 9 14 13 11 9 10 14 10 18 28 36 32 26 30 29 31 26 25 21 21 17 16 13 14 15 14 14 13 13 14 14 12 12 11 12 14 13 12 11 10 10 11 14 17
8 3 6 10 4 13 19 15 16 13 13 10 13 23 35 36 30 27 25 26 23 25 26 25 25 20 19 15 16 13 13 12 12 12 10 7 8 12 10 11 12 12 11 10 9 8 5 4 3
14 15 16 11 16 7 6 6 7 2 12 17 21 25 29 34 26 27 30 33 26 25 25 27 28 20 22 16 19 14 14 14 10 9 5 10 11 12 8 6 9 11 13 9 6 10 8 6 5
18 11 4 3 3 9 9 7 7 12 9 13 24 26 26 25 20 29 28 34 26 22 27 26 21 15 23 17 18 13 15 18 12 8 4 9 9 8 4 1 6 7 11 8 6 4 7 5 8
17 15 9 7 4 6 8 18 13 18 9 10 24 25 26 23 28 28 29 27 27 22 28 26 23 16 18 17 17 15 21 18 16 9 4 5 2 6 6 7 8 4 8 9 9 6 16 7 10
16 13 12 7 13 9 9 14 10 2 14 20 23 25 26 24 30 26 28 25 26 24 25 26 22 14 14 14 6 17 18 21 12 9 8 4 3 4 6 2 4 7 6 10 8 7 11 12 11
15 17 11 11 8 10 14 5 7 19 23 23 23 24 24 24 30 25 27 26 23 24 22 25 22 16 12 10 9 7 7 7 9 14 10 6 2 4 2 4 2 3 9 6 5 1 7 10 10
12 17 15 15 16 13 17 5 17 22 15 24 24 23 20 20 28 26 29 29 26 25 24 25 21 20 14 10 9 8 13 5 10 8 6 7 4 4 2 0 4 7 7 3 6 1 5 11 16
14 14 19 15 20 13 14 3 7 2 20 21 22 23 22 19 23 27 27 27 28 24 26 25 20 21 18 16 14 9 10 10 13 12 10 8 6 6 9 6 6 6 1 9 3 2 2 8 9
16 17 16 17 17 14 15 11 8 8 13 22 20 22 21 23 22 28 28 27 31 26 27 26 21 23 20 17 15 14 8 10 6 13 13 10 6 4 1 7 5 4 4 1 9 6 4 3 10
20 19 17 17 17 18 17 14 12 16 12 14 21 20 22 24 21 29 29 29 30 30 29 24 22 28 24 18 16 15 15 10 9 14 7 11 9 6 4 4 6 2 3 8 4 5 2 5 8
19 20 19 12 15 18 17 12 17 9 11 18 22 22 23 24 24 26 28 31 28 30 31 25 23 29 26 21 19 16 19 19 16 16 16 12 10 6 6 7 5 6 7 7 2 4 5 4 1
18 17 16 17 9 19 13 15 10 6 8 17 18 21 24 24 25 23 26 30 30 32 33 30 27 29 28 20 20 16 15 17 20 24 16 12 11 6 8 6 6 5 5 9 7 6 4 7 4
18 15 18 19 17 12 18 10 20 23 21 25 10 23 24 24 24 23 25 28 31 33 33 33 28 28 31 25 22 17 13 12 16 20 17 18 15 12 9 8 5 5 4 5 5 5 4 4 3
17 16 14 16 18 19 21 12 12 29 21 8 21 18 24 24 25 25 26 32 34 35 35 34 33 28 28 31 23 23 18 17 16 18 22 22 18 14 14 12 10 8 7 7 8 6 3 6 13
16 15 17 17 14 16 21 18 14 13 13 17 22 22 24 25 25 25 33 34 32 34 36 35 36 34 31 36 28 25 26 18 14 16 25 22 21 18 14 14 12 10 8 8 8 6 7 4 2
15 14 12 13 13 17 18 19 15 14 26 30 26 25 25 25 24 24 25 28 33 35 38 38 39 36 35 34 35 25 29 29 20 15 21 20 21 23 22 18 16 14 12 8 9 9 5 6 4
21 18 13 16 14 17 20 20 19 23 15 35 33 29 11 29 24 24 26 31 36 37 39 39 41 39 39 33 36 32 28 31 27 16 19 15 20 24 26 25 18 14 13 11 11 9 10 8 8
20 19 22 23 22 16 17 18 23 21 22 17 14 13 15 7 7 23 23 32 35 36 40 42 42 41 40 42 36 36 31 29 25 21 21 20 20 10 25 26 21 16 14 13 13 10 13 9 11
20 19 18 15 22 24 18 21 13 20 18 17 19 15 11 8 17 22 22 30 34 38 37 38 38 41 40 39 36 36 40 34 30 31 21 24 21 20 20 23 21 20 17 16 15 14 13 12 12
13 15 20 19 17 18 16 16 18 14 22 18 20 21 21 20 13 14 14 28 35 35 36 38 38 38 39 39 39 36 35 36 38 29 34 26 29 19 23 16 19 20 20 18 18 18 15 18 15
17 21 20 14 18 16 15 17 21 10 9 21 19 17 23 19 22 16 22 43 34 36 37 38 39 38 41 40 37 38 36 37 35 37 30 32 30 30 21 23 18 20 20 21 21 21 19 16 19
Wind_Direction
183 193 209 282 257 224 250 243 161 139 111 113 88 105 99 74 127 135 142 144 146 141 139 136 141 141 128 118 111 109 111 120 115 106 99 96 92 89 90 85 82 89 87 84 87 93 94 94 93
176 195 227 277 244 239 278 198 96 101 130 118 104 69 97 96 109 124 136 144 139 136 138 141 136 131 122 119 121 119 116 116 111 105 105 99 97 94 93 92 86 85 89 89 88 92 93 98 99
230 209 341 239 253 318 315 139 189 137 111 99 101 115 57 107 124 130 139 144 136 138 135 140 139 131 126 124 120 119 117 115 113 113 108 106 102 93 94 94 97 96 97 93 95 96 97 96 94
175 193 254 245 251 233 160 208 108 100 104 112 115 82 101 124 129 134 146 141 138 131 128 135 129 130 126 123 124 121 120 116 118 113 111 107 103 102 101 100 100 99 98 95 93 92 90 91 98
225 219 257 245 271 157 143 122 83 134 116 40 100 109 114 110 134 143 146 139 135 122 128 129 136 130 128 127 118 117 119 122 115 117 116 111 109 105 101 101 106 103 100 92 90 98 103 105 108
195 254 257 283 272 136 119 116 107 188 99 89 116 118 113 137 145 148 147 142 124 128 129 131 131 127 123 122 123 120 118 116 116 119 119 115 111 108 102 105 108 107 104 102 101 97 104 111 116
249 273 271 285 258 109 134 134 141 147 140 173 134 122 132 149 153 156 142 126 127 130 131 132 133 127 126 124 120 119 123 120 121 124 121 117 116 111 109 110 113 114 110 114 104 101 102 105 119
172 267 297 312 42 34 136 130 30 310 149 121 141 139 156 161 168 160 134 135 130 132 139 137 136 134 130 126 123 123 121 125 127 128 127 118 114 116 111 107 115 119 119 118 116 118 117 113 119
167 273 326 294 102 188 165 148 157 284 244 194 178 142 153 162 165 156 140 135 128 140 149 146 140 151 133 129 130 128 131 131 129 128 132 115 125 116 113 130 124 127 127 122 124 134 127 127 126
194 239 349 289 239 181 177 170 151 182 178 165 123 123 151 163 166 156 150 136 138 150 157 150 142 146 150 139 133 137 143 146 142 131 134 152 133 129 117 121 124 123 126 128 131 109 102 143 110
235 250 206 261 220 108 125 116 29 167 173 156 137 148 155 164 167 161 155 145 172 162 153 141 141 151 156 142 154 156 163 164 159 146 191 180 130 109 98 121 128 130 123 128 132 139 175 281 300
231 230 131 250 210 175 154 99 340 310 287 147 140 152 158 162 174 170 163 150 164 164 144 136 139 160 145 145 161 156 155 165 140 146 122 154 144 129 20 96 156 166 164 143 201 106 160 65 44
238 250 214 159 168 189 137 147 175 205 239 239 137 158 158 165 174 179 159 157 161 157 142 141 147 145 149 160 154 180 167 180 150 156 176 200 86 149 149 179 117 115 162 195 151 110 168 136 71
254 235 242 187 187 179 194 147 168 285 215 149 148 165 165 173 181 168 159 163 153 160 139 140 152 146 163 149 185 190 207 146 140 166 167 113 17 168 155 159 143 121 117 121 135 191 144 150 119
272 270 252 191 218 196 207 79 287 160 213 140 153 172 173 173 177 169 158 158 161 156 143 145 149 171 155 161 166 155 135 160 143 156 166 139 16 102 295 53 34 132 139 106 138 162 114 134 119
264 252 256 218 205 222 218 152 173 140 170 154 155 172 171 181 171 177 159 161 165 159 153 152 168 165 174 166 171 190 176 198 161 133 150 154 136 140 70 225 127 162 180 151 170 260 198 136 111
246 241 230 238 195 192 221 94 169 214 172 156 158 172 172 184 176 174 168 164 161 159 151 157 173 165 172 175 177 201 192 186 163 182 159 162 161 165 140 75 110 114 177 170 148 172 84 147 146
238 219 251 225 193 200 215 113 129 240 271 154 164 176 176 177 181 169 175 172 161 161 158 164 169 166 172 168 187 197 209 171 184 170 164 165 183 154 237 122 141 108 123 3 112 145 182 65 84
267 278 231 254 182 192 213 134 152 204 244 257 164 177 182 172 186 168 180 176 162 159 163 172 177 165 174 175 195 197 188 186 176 178 202 186 176 160 176 182 176 168 116 119 119 138 147 111 136
257 266 275 249 187 193 146 147 190 206 249 262 168 174 186 178 180 170 185 176 177 164 164 178 181 165 172 180 198 190 190 183 196 185 161 163 179 180 177 165 177 148 154 158 142 249 290 6 184
246 251 262 267 233 186 207 156 167 251 312 291 193 175 187 184 179 171 186 180 181 168 168 177 183 170 175 186 200 217 204 187 190 171 165 168 182 202 189 180 197 183 158 184 168 193 265 320 217
247 243 254 274 276 254 188 217 192 186 200 244 248 174 188 186 183 171 183 186 183 172 170 176 183 177 182 190 194 208 214 192 190 177 178 175 184 188 190 178 173 193 216 158 213 218 240 269 296
253 262 258 242 268 275 265 250 205 167 185 176 281 237 188 188 186 176 183 189 185 175 173 176 183 185 187 194 193 201 214 217 200 182 202 176 179 187 191 195 189 196 204 194 211 247 207 241 246
254 252 272 272 248 245 253 264 246 169 178 172 230 302 189 189 187 182 182 185 187 178 177 178 182 188 190 196 196 197 205 216 206 209 159 174 184 189 209 202 191 204 199 201 198 222 242 238 326
227 234 239 239 237 245 233 242 247 221 183 177 170 232 207 183 185 181 178 181 189 182 180 181 182 187 191 194 202 196 202 217 220 215 179 184 182 189 195 195 196 208 211 206 202 204 233 229 253
212 227 230 226 237 243 233 248 231 255 243 178 190 188 219 175 183 185 183 186 187 189 184 183 182 186 190 194 201 202 200 214 223 223 207 203 205 201 198 190 199 195 212 206 207 211 219 208 232
247 225 238 262 269 258 255 227 229 245 245 201 154 162 160 280 299 188 185 188 186 190 188 187 185 187 190 194 195 203 200 204 213 215 213 214 225 252 188 188 188 198 206 203 211 213 223 226 212
231 257 231 230 249 260 265 265 237 207 237 219 145 155 168 162 260 279 183 187 188 192 191 190 188 189 192 194 196 197 202 204 203 217 215 215 218 231 188 185 186 193 211 211 210 223 223 214 211
231 248 259 270 231 252 256 258 271 213 206 216 185 175 177 171 183 259 296 193 191 190 192 192 193 188 192 195 198 199 201 204 206 207 219 217 216 219 220 197 191 194 207 216 218 224 233 220 218
227 265 253 248 253 266 257 255 260 343 251 206 228 221 170 161 159 158 243 257 184 188 192 193 193 195 195 197 197 201 202 201 206 210 212 210 214 221 219 217 207 209 210 217 219 221 232 231 219
Height
772 775 777 778 792 778 770 773 759 750 747 733 737 752 769 761 783 805 793 796 802 807 811 815 818 821 823 824 827 829 830 831 833 834 836 837 838 839 839 839 839 840 842 842 842 844 845 846 846
773 774 775 774 792 782 768 746 755 744 733 733 741 757 758 772 767 780 790 797 801 807 813 817 819 822 824 826 828 830 832 834 835 837 838 839 840 841 842 842 842 843 844 845 845 846 847 848 848
772 773 779 779 773 779 787 754 745 733 730 739 752 748 758 772 775 778 789 795 801 808 814 817 821 824 826 828 829 831 833 835 837 838 840 841 843 844 844 844 845 845 846 847 847 848 849 850 851
770 772 775 786 777 760 759 750 731 738 739 740 746 765 765 772 775 782 788 794 801 808 815 819 823 826 827 829 830 833 834 836 838 840 842 844 845 845 846 846 847 847 849 850 851 852 853 853 853
768 768 781 771 761 749 742 752 743 749 748 765 753 775 775 776 780 784 788 793 799 809 816 822 825 827 829 830 832 834 837 838 839 841 843 845 845 847 847 848 849 850 851 852 853 853 854 854 854
773 766 777 772 762 746 747 750 754 760 759 771 764 776 779 779 781 784 787 794 801 810 818 823 826 829 831 834 834 836 838 840 841 843 845 846 847 848 849 849 851 853 853 854 854 855 855 855 855
764 774 769 767 765 763 756 751 755 753 762 771 758 778 778 779 783 784 787 795 802 811 820 825 828 831 833 835 837 838 840 842 843 844 846 848 848 849 850 851 853 854 854 855 856 857 856 855 856
759 769 764 760 771 778 757 757 758 761 758 750 752 776 783 779 781 784 788 795 802 811 820 825 829 833 835 837 839 840 842 843 844 846 847 848 849 851 851 852 854 855 856 856 857 857 856 855 857
749 776 778 771 755 772 751 760 765 756 756 747 748 759 768 776 779 784 788 796 804 812 817 822 828 832 836 838 840 841 843 844 845 847 849 850 851 852 853 854 855 856 857 859 859 859 861 859 859
755 772 783 761 747 747 739 743 752 761 751 746 748 755 769 776 778 784 787 796 802 809 814 818 825 832 835 838 840 842 844 845 847 849 850 851 853 855 856 856 858 858 859 859 860 867 869 868 865
740 755 756 745 735 731 739 752 756 751 751 746 757 762 769 775 779 783 787 796 802 806 811 818 824 829 834 836 840 842 844 846 847 850 849 852 855 859 860 860 860 860 859 860 861 866 870 870 867
742 731 732 735 726 727 740 764 773 770 759 738 748 760 770 775 778 780 784 793 799 804 809 816 824 830 832 835 840 842 844 846 846 849 850 853 856 857 862 860 863 861 862 862 862 864 867 865 864
729 722 724 726 727 726 734 760 754 771 754 747 750 761 771 778 779 779 785 791 799 804 809 817 823 829 832 834 839 840 843 843 846 849 852 853 856 859 860 859 859 862 864 861 861 862 866 868 866
714 714 716 720 728 731 742 749 745 755 749 741 754 761 767 773 775 777 784 791 797 804 809 817 823 830 834 835 840 840 842 844 846 849 853 855 855 857 860 860 861 861 862 864 863 864 866 867 870
718 727 716 722 728 742 731 760 754 752 749 750 755 762 763 768 771 776 782 790 798 804 811 817 824 830 833 835 839 839 842 845 846 848 852 857 856 857 859 862 863 863 863 864 863 864 866 867 868
733 729 743 714 722 716 726 756 749 745 738 753 757 760 763 766 769 776 781 789 798 804 811 817 823 828 833 836 838 839 843 846 847 850 852 856 860 861 860 859 862 862 864 863 864 864 867 867 868
734 750 738 724 714 714 723 754 751 755 736 744 751 757 761 767 768 776 780 788 796 803 810 816 822 827 832 836 839 840 845 846 847 850 851 855 859 860 860 859 861 862 864 865 865 865 866 867 869
743 740 727 724 714 713 723 741 746 746 744 734 746 753 757 764 765 773 779 786 794 803 809 816 821 826 832 836 839 842 843 845 848 849 851 854 857 860 859 861 860 864 864 864 866 865 867 868 868
722 720 718 704 691 713 725 755 751 742 744 750 738 748 753 758 763 771 777 785 792 800 807 814 819 823 830 834 837 840 842 844 848 849 852 855 856 859 861 862 863 863 864 865 866 866 867 868 868
726 728 719 695 688 704 728 755 749 735 739 746 730 741 748 751 759 766 773 780 787 796 803 812 817 821 827 833 835 837 839 843 845 849 850 853 855 858 860 861 862 863 865 865 866 865 867 869 869
725 730 722 716 694 693 711 759 762 750 745 752 722 729 739 743 751 760 768 775 783 791 799 808 814 819 824 830 833 835 838 840 842 846 848 851 855 856 859 861 861 863 866 865 868 869 870 869 869
737 712 717 717 718 730 701 757 745 751 764 749 732 723 732 737 745 753 764 771 778 786 794 803 811 816 822 827 831 833 835 837 839 843 846 848 852 855 857 859 862 863 864 865 866 869 870 868 870
729 709 714 720 726 722 712 722 708 727 748 751 743 728 726 729 737 745 754 763 772 780 788 797 806 813 819 823 828 831 833 835 837 839 843 846 850 853 856 858 861 862 864 865 866 867 870 871 870
711 722 722 719 724 746 725 722 715 733 734 743 738 751 722 726 730 738 747 758 766 775 784 791 800 807 814 819 823 827 830 833 835 837 840 844 847 851 855 857 858 861 862 864 865 867 867 868 869
721 737 762 764 756 745 714 725 712 681 696 712 730 745 715 716 722 730 740 750 758 766 775 783 792 800 808 814 818 823 827 830 832 835 839 841 844 847 849 853 856 858 861 862 864 865 865 866 867
724 732 751 774 756 740 708 727 706 674 666 693 701 695 705 699 710 721 730 738 748 755 764 774 782 791 799 808 813 818 823 826 829 833 835 838 840 842 845 848 852 855 859 861 863 864 865 865 866
725 731 717 734 719 725 709 692 681 670 670 669 688 695 711 720 725 716 724 733 741 748 756 763 772 783 791 798 805 812 817 822 825 829 832 834 836 839 840 845 850 853 856 859 860 862 863 864 866
718 710 736 730 761 756 724 705 697 684 678 668 687 693 700 704 728 741 720 728 734 741 750 760 767 775 784 793 799 804 810 815 820 824 827 831 834 836 841 842 845 849 853 856 858 859 860 862 864
727 730 724 720 721 741 746 716 664 667 664 666 669 681 692 696 730 734 738 722 728 737 744 751 761 769 777 784 791 798 803 810 815 819 823 826 830 832 836 840 842 845 848 852 854 856 858 859 861
718 725 722 735 742 723 720 712 654 654 650 651 655 656 672 680 705 728 732 731 718 726 735 742 751 759 767 776 784 791 797 803 808 812 816 821 825 828 831 834 838 842 845 847 849 852 854 855 857